TimeMDT,TemperatureF,Dew PointF,Humidity,Sea Level PressureIn,VisibilityMPH,Wind Direction,Wind SpeedMPH,Gust SpeedMPH,PrecipitationIn,Events,Conditions,WindDirDegrees,DateUTC
12:53 AM,28.9,17.1,61,30.04,10.0,North,-9999.0,-,N/A,,Clear,0,2013-03-22 06:53:00
1:53 AM,28.9,18.0,64,30.02,10.0,Calm,Calm,-,N/A,,Mostly Cloudy,0,2013-03-22 07:53:00
2:53 AM,26.1,21.0,81,30.02,10.0,WSW,6.9,-,0.00,,Overcast,250,2013-03-22 08:53:00
3:42 AM,26.6,23.0,86,29.95,5.0,West,6.9,-,0.00,Snow,Light Snow,270,2013-03-22 09:42:00
3:53 AM,26.1,21.9,84,30.01,9.0,SW,8.1,-,0.00,,Mostly Cloudy,230,2013-03-22 09:53:00
4:44 AM,26.6,24.8,93,29.94,10.0,WSW,15.0,-,N/A,,Overcast,240,2013-03-22 10:44:00
4:53 AM,26.1,25.0,96,30.00,10.0,WSW,19.6,24.2,N/A,,Overcast,250,2013-03-22 10:53:00
5:53 AM,25.0,24.1,96,30.00,10.0,WSW,20.7,25.3,N/A,,Overcast,250,2013-03-22 11:53:00
6:12 AM,24.8,24.8,100,29.94,10.0,WSW,16.1,25.3,N/A,,Overcast,240,2013-03-22 12:12:00
6:53 AM,25.0,24.1,96,30.00,10.0,WSW,19.6,-,N/A,,Overcast,250,2013-03-22 12:53:00
7:51 AM,24.8,21.2,86,29.94,10.0,WSW,17.3,26.5,N/A,,Overcast,250,2013-03-22 13:51:00
7:53 AM,24.1,21.9,91,30.02,10.0,WSW,18.4,26.5,N/A,,Overcast,240,2013-03-22 13:53:00
8:53 AM,25.0,21.9,88,30.03,10.0,WSW,20.7,29.9,N/A,,Scattered Clouds,250,2013-03-22 14:53:00
9:53 AM,28.0,19.9,72,30.03,10.0,WSW,28.8,34.5,N/A,,Clear,250,2013-03-22 15:53:00
10:53 AM,30.9,19.9,64,30.02,10.0,West,28.8,36.8,N/A,,Clear,260,2013-03-22 16:53:00
11:53 AM,32.0,18.0,56,30.03,10.0,West,29.9,42.6,N/A,,Clear,260,2013-03-22 17:53:00
12:53 PM,34.0,17.1,50,30.01,10.0,West,27.6,35.7,N/A,,Partly Cloudy,260,2013-03-22 18:53:00
1:53 PM,36.0,17.1,46,30.00,10.0,WSW,26.5,34.5,N/A,,Partly Cloudy,250,2013-03-22 19:53:00
2:53 PM,37.0,12.9,37,30.00,10.0,WSW,28.8,36.8,N/A,,Partly Cloudy,240,2013-03-22 20:53:00
3:53 PM,37.9,12.9,36,30.00,10.0,West,23.0,33.4,N/A,,Scattered Clouds,260,2013-03-22 21:53:00
4:53 PM,37.9,12.9,36,30.00,10.0,WSW,26.5,34.5,N/A,,Partly Cloudy,250,2013-03-22 22:53:00
5:53 PM,35.1,12.9,40,30.03,10.0,West,27.6,33.4,N/A,,Mostly Cloudy,260,2013-03-22 23:53:00
6:44 PM,30.2,19.4,64,29.97,10.0,NNW,15.0,-,N/A,,Overcast,340,2013-03-23 00:44:00
6:53 PM,30.9,19.9,64,30.06,10.0,North,12.7,-,N/A,,Overcast,350,2013-03-23 00:53:00
7:33 PM,33.8,14.0,44,29.98,10.0,West,24.2,28.8,N/A,,Overcast,270,2013-03-23 01:33:00
7:53 PM,32.0,12.9,45,30.07,10.0,West,18.4,-,N/A,,Mostly Cloudy,260,2013-03-23 01:53:00
8:53 PM,30.0,14.0,51,30.10,10.0,West,13.8,-,N/A,,Mostly Cloudy,270,2013-03-23 02:53:00
9:53 PM,28.9,16.0,58,30.12,10.0,West,10.4,-,N/A,,Mostly Cloudy,270,2013-03-23 03:53:00
10:53 PM,26.1,21.9,84,30.14,10.0,NW,4.6,-,N/A,,Scattered Clouds,310,2013-03-23 04:53:00
11:53 PM,26.1,23.0,88,30.15,10.0,West,3.5,-,N/A,,Overcast,270,2013-03-23 05:53:00